Regional Weather Roundup
Issued by NWS

Home | Current Version | Previous Version | Graphics & Text | Print | Product List | Glossary On
Versions: 1 2 3 4 5 6 7 8 9 10 11 12 13 14 15 16 17 18 19 20 21 22 23 24 25 26 27 28 29 30 31 32 33 34 35 36 37 38 39 40 41 42 43 44 45 46 47 48 49 50
000
ASUS43 KIND 041059
RWRIN

WEATHER ROUNDUP FOR INDIANA
NATIONAL WEATHER SERVICE INDIANAPOLIS IN
700 AM EDT TUE AUG 04 2015

NOTE: "FAIR" INDICATES FEW OR NO CLOUDS BELOW 12,000 FEET WITH NO
SIGNIFICANT WEATHER AND/OR OBSTRUCTIONS TO VISIBILITY.

* - STATION DOES NOT REPORT WEATHER SUCH AS PRECIPITATION OR FOG.

+ - STATION NOT QUALITY CONTROLLED BY THE NATIONAL WEATHER SERVICE.
    USE DATA WITH CAUTION...ESPECIALLY DEWPOINT AND RELATIVE
    HUMIDITY OBSERVATIONS.

INZ001>003-010>013-019-020-041200-
NORTHWEST INDIANA

CITY           SKY/WX    TMP DP  RH WIND       PRES   REMARKS
GARY /AIRPORT/ CLEAR     61  57  88 CALM      29.95R
KNOX *+        CLEAR     55  55 100 CALM      29.94R
MONTICELLO +   CLEAR     57  56  98 CALM      29.95R

$$

LMZ046-743>745-041200-
SOUTHERN LAKE MICHIGAN

STATION/POSITION TIME  TEMP    WIND        PRES    WAVE
                       AIR SEA DIR/SP/G            HT
                 (UTC) (F)     (DEG/KT/KT) (MB)    (FT)
BURNS HARBOR     1000   64     200/  4/  5 1013.9S
MICHIGAN CITY    1000   64     160/  3/  4   N/A
5NW MICH CITY    1000   72 73  300/  6/  8   N/A     2

$$

INZ004-005-014>016-021>024-041200-
NORTH CENTRAL INDIANA

CITY           SKY/WX    TMP DP  RH WIND       PRES   REMARKS
ELKHART        CLEAR     57  55  94 CALM      29.94
GOSHEN         CLEAR     58  54  86 SW3       29.94R
SOUTH BEND     CLEAR     59  55  87 SW3       29.95R
WARSAW +       CLEAR     55  54  94 CALM      29.95R

$$

INZ006>009-017-018-025>027-041200-
NORTHEAST INDIANA

CITY           SKY/WX    TMP DP  RH WIND       PRES   REMARKS
ANGOLA *+      CLEAR     55  54  94 CALM      29.94R
FORT WAYNE     PTCLDY    59  56  89 SW6       29.96R

$$

INZ028-029-035-036-043>045-051>053-041200-
WEST CENTRAL INDIANA

CITY           SKY/WX    TMP DP  RH WIND       PRES   REMARKS
CRAWFORDSVL +  CLEAR     54  54 100 CALM        N/A
GREENCASTLE +  CLEAR     59  54  82 CALM      29.99R
LAFAYETTE      CLEAR     56  55  97 CALM      29.97R FOG
TERRE HAUTE    PTCLDY    62  60  93 CALM      29.98R

$$

INZ030>032-037>040-046>048-054>057-064-065-041200-
CENTRAL INDIANA

CITY           SKY/WX    TMP DP  RH WIND       PRES   REMARKS
FRANKFORT +    CLEAR    N/A N/A N/A CALM      29.99R
GREENWOOD *+   CLEAR     57  54  88 CALM      29.98R
INDIANAPOLIS   MOCLDY    62  57  83 W3        29.96R
-EAGLE CREEK   CLEAR     62  60  93 W3        29.97R
KOKOMO *+      CLEAR     57  54  88 SW3       29.97R
MT COMFORT *+  CLEAR     57 N/A N/A CALM      29.98R
SHELBYVILLE    CLEAR     59  56  89 CALM      29.96R

$$

INZ033-034-041-042-049-050-058-059-041200-
EAST CENTRAL INDIANA

CITY           SKY/WX    TMP DP  RH WIND       PRES   REMARKS
MUNCIE         CLEAR     57  55  93 CALM      29.97R

$$

INZ060-061-067>069-081>083-085>088-041200-
SOUTHWEST INDIANA

CITY           SKY/WX    TMP DP  RH WIND       PRES   REMARKS
EVANSVILLE     MOCLDY    72  68  87 CALM      29.97R
HUNTINGBURG *+ MOCLDY    70  66  88 CALM      29.97R

$$

INZ062-063-066-070>080-084-089>092-041200-
SOUTH CENTRAL AND SOUTHEAST INDIANA

CITY           SKY/WX    TMP DP  RH WIND       PRES   REMARKS
BLOOMINGTON    PTCLDY    63  61  93 CALM      29.98R
MADISON *+       N/A     64  63  94 CALM      29.99R
SEYMOUR +      FOG       64  64 100 CALM      29.97R VSB 1

$$




USA.gov is the U.S. government's official web portal to all federal, state and local government web resources and services.